User: anonymous
Location: Caltech
(34.1382°N, 118.1253°W)
Time: 11:34:18
(UTC-07:00)
Language:

Cosmos 2333 Rocket - Orbit

View from above orbital plane
View from above orbital plane
View from above satellite
View from above satellite

Ground track
Ground track

The orbit data is extracted from the following two-line orbital elements,

1 24298U 96051B   14106.81584082 -.00000076  00000-0 -15182-4 0  4300
2 24298 070.8717 341.1315 0013584 109.9856 299.9126 14.12487203908405
Epoch (UTC): 16 April 2014 19:34:48
Eccentricity: 0.0013584
inclination: 70.8717°
perigee height: 841 km
apogee height: 860 km
right ascension of ascending node: 341.1315°
argument of perigee: 109.9856°
revolutions per day: 14.12487203
mean anomaly at epoch: 299.9126°
orbit number at epoch: 90840

The dashed part of the orbit path shows where the satellite is in the earth's shadow,  

DLR